Regional Weather Roundup
Issued by NWS

Home | Current Version | Previous Version | Text Only | Print | Product List | Glossary Off
Versions: 1 2 3 4 5 6 7 8 9 10 11 12 13 14 15 16 17 18 19 20 21 22 23 24 25 26 27 28 29 30 31 32 33 34 35 36 37 38 39 40 41 42 43 44 45 46 47 48 49 50

000
ASUS43 KLSX 211859
RWRMO

WEATHER SUMMARY FOR MISSOURI
NATIONAL WEATHER SERVICE SPRINGFIELD MO
100 PM CST SUN DEC 21 2014

NOTE: "FAIR" INDICATES FEW OR NO CLOUDS BELOW 12,000 FEET WITH NO
       SIGNIFICANT WEATHER AND/OR OBSTRUCTIONS TO VISIBILITY.
       CURRENT SKY AND/OR WEATHER CONDITIONS ARE NOT AVAILABLE FOR
       CHILLICOTHE AND FARMINGTON.

MOZ001>031-035>038-043-044-053-054-212000-
...NORTHERN AND WESTERN MISSOURI...

CITY           SKY/WX    TMP DP  RH WIND       PRES   REMARKS
KANSAS CTY INT CLOUDY    43  39  86 S17       29.88F
KANSAS C DTWN  CLOUDY    45  39  79 S10       29.90F
LEE`S SUMMIT   CLOUDY    45  39  79 S14       29.91F
ST JOSEPH      CLOUDY    43  38  82 S15       29.88F
CHILLICOTHE      N/A     45  39  79 S12G20    29.94F
KIRKSVILLE     CLOUDY    43  39  86 S13       29.96F

$$
MOZ066>068-077>081-088>096-101>105-212000-
...SOUTHWEST MISSOURI...

CITY           SKY/WX    TMP DP  RH WIND       PRES   REMARKS
SPRINGFIELD    CLOUDY    42  37  82 SE13      29.97F
JOPLIN         CLOUDY    47  40  76 S15       29.94F

$$
MOZ032>034-039>042-045>050-055>058-069>072-212000-
...CENTRAL MISSOURI...

CITY           SKY/WX    TMP DP  RH WIND       PRES   REMARKS
COLUMBIA       CLOUDY    45  38  76 SE17      30.00F
JEFFERSON CITY CLOUDY    45  37  73 S14       30.02F
ROLLA          CLOUDY    40  36  86 S9        30.02F
SEDALIA        CLOUDY    44  40  85 S12       29.97F
WHITEMAN AFB   CLOUDY    44  40  88 S12       29.95F
WARRENSBURG    DRIZZLE   43  41  93 S7        29.95F
OSAGE BEACH    CLOUDY    43  37  81 S14       30.01F

$$
MOZ051-052-059>065-212000-
...EAST CENTRAL MISSOURI...

CITY           SKY/WX    TMP DP  RH WIND       PRES   REMARKS
ST LOUIS INTL  CLOUDY    44  32  62 SE14      30.10F
SPIRIT OF STL  CLOUDY    44  34  67 S8G17     30.06F
ST CHARLES     CLOUDY    43  34  70 SE15      30.08F

$$
MOZ072>076-082>087-097>100-106>115-212000-
...SOUTH CENTRAL AND SOUTHEAST MISSOURI...

CITY           SKY/WX    TMP DP  RH WIND       PRES   REMARKS
CAPE GIRARDEAU CLOUDY    44  31  60 SE5       30.13F
FARMINGTON     CLOUDY    41  32  70 E8        30.10F
POPLAR BLUFF   CLOUDY    42  30  62 E5        30.11F
WEST PLAINS    CLOUDY    40  34  79 SE8       30.05F

$$


USA.gov is the U.S. government's official web portal to all federal, state and local government web resources and services.